RYR3780 EIDW-LEMH

Flight info

Callsign RYR3780
Flight time 2h 14m
Altitude 37000
Route PESIT2J PESIT DCT BAKUR DCT GUBJE DCT GISOK DCT TACQI DCT MANIG DCT KORER UM616 TUPAR DCT CNA DCT SECHE DCT AGN DCT TOU DCT LOMRA DCT ROCAN DCT GEANT DCT GIR DCT SALON DCT SULID DCT DIPES N727 SARGO
Aircraft B738/M-SDE2E3FGHIRWXY/LB1

Departure

Time 2026-04-14 13:55
Airport Dublin Airport (EIDW)

Arrival

Time 2026-04-14 16:09
Airport Menorca Airport (LEMH)
Time Latitude Longitude Altitude Speed Heading
2026-04-14 13:41 53.43015 -6.25074 210 ft 0 kts
2026-04-14 13:46 53.43007 -6.25075 217 ft 4 kts
2026-04-14 13:46 53.42983 -6.25079 218 ft 4 kts
2026-04-14 13:46 53.42961 -6.25070 214 ft 4 kts 302°
2026-04-14 13:47 53.42954 -6.25032 218 ft 2 kts 275°
2026-04-14 13:47 53.42954 -6.25022 214 ft 0 kts 275°
2026-04-14 13:49 53.42954 -6.25026 213 ft 2 kts 275°
2026-04-14 13:49 53.42958 -6.25095 216 ft 10 kts 275°
2026-04-14 13:49 53.42956 -6.25252 213 ft 17 kts 251°
2026-04-14 13:50 53.42879 -6.25430 210 ft 17 kts 226°
2026-04-14 13:50 53.42784 -6.25592 216 ft 22 kts 224°
2026-04-14 13:50 53.42680 -6.25740 210 ft 18 kts 192°
2026-04-14 13:50 53.42549 -6.25683 213 ft 21 kts 192°
2026-04-14 13:51 53.42435 -6.25864 212 ft 25 kts 226°
2026-04-14 13:51 53.42331 -6.26039 210 ft 13 kts 225°
2026-04-14 13:51 53.42274 -6.26197 216 ft 19 kts 253°
2026-04-14 13:51 53.42278 -6.26446 210 ft 25 kts 272°
2026-04-14 13:52 53.42289 -6.26719 210 ft 22 kts 275°
2026-04-14 13:52 53.42304 -6.27006 210 ft 28 kts 275°
2026-04-14 13:52 53.42316 -6.27238 212 ft 22 kts 275°
2026-04-14 13:52 53.42333 -6.27531 210 ft 28 kts 275°
2026-04-14 13:53 53.42350 -6.27825 218 ft 25 kts 275°
2026-04-14 13:53 53.42366 -6.28149 212 ft 31 kts 274°
2026-04-14 13:53 53.42383 -6.28443 215 ft 26 kts 276°
2026-04-14 13:53 53.42397 -6.28689 210 ft 21 kts 275°
2026-04-14 13:54 53.42410 -6.28927 218 ft 11 kts 274°
2026-04-14 13:54 53.42362 -6.29050 210 ft 16 kts 201°
2026-04-14 13:54 53.42255 -6.29021 214 ft 13 kts 134°
2026-04-14 13:54 53.42234 -6.28850 217 ft 17 kts 93°
2026-04-14 13:55 53.42209 -6.28417 219 ft 72 kts 95°
2026-04-14 13:55 53.42143 -6.27161 209 ft 140 kts 96°
2026-04-14 13:55 53.42012 -6.25309 528 ft 169 kts 104°
2026-04-14 13:55 53.41686 -6.23251 925 ft 197 kts 122°
2026-04-14 13:56 53.40753 -6.21434 1113 ft 220 kts 144°
2026-04-14 13:56 53.39375 -6.20208 1518 ft 231 kts 166°
2026-04-14 13:56 53.37787 -6.19788 2212 ft 230 kts 176°
2026-04-14 13:56 53.36183 -6.19534 3014 ft 234 kts 178°
2026-04-14 13:57 53.34551 -6.19275 3591 ft 237 kts 175°
2026-04-14 13:57 53.32964 -6.18382 4134 ft 248 kts 156°
2026-04-14 13:57 53.31441 -6.16998 5035 ft 249 kts 155°
2026-04-14 13:57 53.29926 -6.15630 5899 ft 250 kts 156°
2026-04-14 13:58 53.28388 -6.14246 6755 ft 252 kts 156°
2026-04-14 13:58 53.26826 -6.12846 7516 ft 257 kts 156°
2026-04-14 13:58 53.25232 -6.11423 8247 ft 263 kts 157°
2026-04-14 13:58 53.23609 -6.09976 9029 ft 267 kts 157°
2026-04-14 13:59 53.21970 -6.08522 9734 ft 273 kts 157°
2026-04-14 13:59 53.20240 -6.07050 10203 ft 286 kts 162°
2026-04-14 13:59 53.18232 -6.06547 10426 ft 300 kts 184°
2026-04-14 13:59 53.16127 -6.06839 11057 ft 304 kts 188°
2026-04-14 14:00 53.14032 -6.07242 11813 ft 307 kts 189°
2026-04-14 14:00 53.11870 -6.07621 12562 ft 312 kts 186°
2026-04-14 14:00 53.09693 -6.07223 13435 ft 320 kts 171°
2026-04-14 14:00 53.07487 -6.06271 13963 ft 332 kts 169°
2026-04-14 14:01 53.05233 -6.05220 14581 ft 339 kts 168°
2026-04-14 14:01 53.02975 -6.04154 15280 ft 344 kts 169°
2026-04-14 14:01 53.00643 -6.03064 15964 ft 349 kts 168°
2026-04-14 14:01 52.98278 -6.01972 16643 ft 355 kts 169°
2026-04-14 14:02 52.95878 -6.00876 17328 ft 360 kts 169°
2026-04-14 14:02 52.93472 -5.99787 17993 ft 365 kts 169°
2026-04-14 14:02 52.90998 -5.98674 18594 ft 370 kts 169°
2026-04-14 14:02 52.88497 -5.97552 19236 ft 373 kts 169°
2026-04-14 14:03 52.85979 -5.96425 19881 ft 376 kts 169°
2026-04-14 14:03 52.83471 -5.95305 20458 ft 380 kts 169°
2026-04-14 14:03 52.80869 -5.94145 21075 ft 383 kts 169°
2026-04-14 14:03 52.78304 -5.93004 21662 ft 387 kts 169°
2026-04-14 14:04 52.75685 -5.91840 22248 ft 391 kts 169°
2026-04-14 14:04 52.73043 -5.90666 22809 ft 395 kts 169°
2026-04-14 14:04 52.70396 -5.89494 22869 ft 399 kts 169°
2026-04-14 14:04 52.67721 -5.88306 22880 ft 396 kts 169°
2026-04-14 14:05 52.65063 -5.87127 22883 ft 395 kts 169°
2026-04-14 14:05 52.62397 -5.85948 22899 ft 395 kts 169°
2026-04-14 14:05 52.59770 -5.84789 22882 ft 396 kts 169°
2026-04-14 14:05 52.57102 -5.83613 22893 ft 396 kts 169°
2026-04-14 14:06 52.54442 -5.82442 22899 ft 397 kts 169°
2026-04-14 14:06 52.51770 -5.81267 22902 ft 397 kts 169°
2026-04-14 14:06 52.49096 -5.80093 22903 ft 397 kts 169°
2026-04-14 14:06 52.46424 -5.78893 22900 ft 398 kts 168°
2026-04-14 14:07 52.43757 -5.77602 22908 ft 398 kts 168°
2026-04-14 14:07 52.41092 -5.76294 22919 ft 398 kts 168°
2026-04-14 14:07 52.38464 -5.75006 22947 ft 401 kts 168°
2026-04-14 14:07 52.35772 -5.73682 23404 ft 404 kts 167°
2026-04-14 14:08 52.33087 -5.72358 24048 ft 403 kts 168°
2026-04-14 14:08 52.30396 -5.71035 24575 ft 405 kts 168°
2026-04-14 14:08 52.27684 -5.69707 24986 ft 409 kts 168°
2026-04-14 14:08 52.24935 -5.68364 25401 ft 414 kts 168°
2026-04-14 14:09 52.22225 -5.66837 25840 ft 420 kts 164°
2026-04-14 14:09 52.19466 -5.64993 26291 ft 424 kts 162°
2026-04-14 14:09 52.16772 -5.63113 26708 ft 428 kts 162°
2026-04-14 14:09 52.14019 -5.61194 27094 ft 431 kts 162°
2026-04-14 14:10 52.11242 -5.59291 27545 ft 434 kts 163°
2026-04-14 14:10 52.08446 -5.57405 27969 ft 437 kts 163°
2026-04-14 14:10 52.05618 -5.55514 28365 ft 441 kts 163°
2026-04-14 14:10 52.02807 -5.53577 28741 ft 445 kts 161°
2026-04-14 14:11 51.99982 -5.51428 29132 ft 450 kts 160°
2026-04-14 14:11 51.97160 -5.49180 29501 ft 453 kts 159°
2026-04-14 14:11 51.94322 -5.46891 29882 ft 456 kts 159°
2026-04-14 14:11 51.91463 -5.44593 30180 ft 459 kts 159°
2026-04-14 14:12 51.88600 -5.42309 30574 ft 459 kts 160°
2026-04-14 14:12 51.85723 -5.40032 30917 ft 460 kts 160°
2026-04-14 14:12 51.82866 -5.37787 31182 ft 463 kts 160°
2026-04-14 14:12 51.79940 -5.35498 31446 ft 466 kts 160°
2026-04-14 14:13 51.77000 -5.33202 31727 ft 468 kts 160°
2026-04-14 14:13 51.74064 -5.30912 32086 ft 469 kts 160°
2026-04-14 14:13 51.71167 -5.28652 32507 ft 467 kts 161°
2026-04-14 14:13 51.68242 -5.26373 32906 ft 466 kts 161°
2026-04-14 14:14 51.65316 -5.24098 33235 ft 466 kts 161°
2026-04-14 14:14 51.62391 -5.21829 33554 ft 467 kts 161°
2026-04-14 14:14 51.59456 -5.19555 33916 ft 467 kts 161°
2026-04-14 14:14 51.56530 -5.17288 34255 ft 466 kts 161°
2026-04-14 14:15 51.53604 -5.15027 34566 ft 465 kts 162°
2026-04-14 14:15 51.50717 -5.12650 34861 ft 471 kts 156°
2026-04-14 14:15 51.48008 -5.09597 35109 ft 481 kts 146°
2026-04-14 14:15 51.45525 -5.06104 35367 ft 482 kts 144°
2026-04-14 14:16 51.43027 -5.02485 35570 ft 484 kts 144°
2026-04-14 14:16 51.40517 -4.98839 35802 ft 485 kts 144°
2026-04-14 14:16 51.38005 -4.95219 36087 ft 485 kts 144°
2026-04-14 14:17 51.32972 -4.88073 36659 ft 483 kts 146°
2026-04-14 14:17 51.30470 -4.84558 36920 ft 483 kts 146°
2026-04-14 14:17 51.25367 -4.77426 36980 ft 489 kts 146°
2026-04-14 14:18 51.20231 -4.70260 36967 ft 488 kts 145°
2026-04-14 14:18 51.15117 -4.63131 36970 ft 486 kts 145°
2026-04-14 14:19 51.10051 -4.56097 36976 ft 485 kts 145°
2026-04-14 14:19 51.04963 -4.49062 36977 ft 484 kts 146°
2026-04-14 14:20 50.99513 -4.42999 36986 ft 474 kts 156°
2026-04-14 14:20 50.93884 -4.37537 36985 ft 474 kts 156°
2026-04-14 14:21 50.88280 -4.32089 36993 ft 476 kts 156°
2026-04-14 14:21 50.82648 -4.26537 36991 ft 477 kts 155°
2026-04-14 14:22 50.77012 -4.20955 36986 ft 478 kts 155°
2026-04-14 14:22 50.71386 -4.15392 37000 ft 480 kts 155°
2026-04-14 14:23 50.65697 -4.09789 37018 ft 482 kts 155°
2026-04-14 14:23 50.59983 -4.04180 37015 ft 484 kts 155°
2026-04-14 14:24 50.54274 -3.98592 37007 ft 485 kts 154°
2026-04-14 14:24 50.48554 -3.93008 37020 ft 486 kts 154°
2026-04-14 14:25 50.42802 -3.87408 37023 ft 486 kts 155°
2026-04-14 14:25 50.37033 -3.81810 37030 ft 486 kts 155°
2026-04-14 14:26 50.31310 -3.76270 37036 ft 486 kts 154°
2026-04-14 14:26 50.25545 -3.70709 37042 ft 485 kts 154°
2026-04-14 14:27 50.19825 -3.65205 37032 ft 486 kts 154°
2026-04-14 14:27 50.14064 -3.59678 37040 ft 485 kts 154°
2026-04-14 14:28 50.09278 -3.55100 37034 ft 485 kts 154°
2026-04-14 14:28 50.03508 -3.49593 37043 ft 485 kts 154°
2026-04-14 14:29 49.97768 -3.44130 37048 ft 486 kts 154°
2026-04-14 14:29 49.91976 -3.38633 37034 ft 486 kts 154°
2026-04-14 14:30 49.86220 -3.33184 37044 ft 487 kts 154°
2026-04-14 14:30 49.80418 -3.27739 37050 ft 486 kts 157°
2026-04-14 14:31 49.74227 -3.24075 37063 ft 471 kts 174°
2026-04-14 14:31 49.67840 -3.21775 37031 ft 471 kts 174°
2026-04-14 14:32 49.61447 -3.19478 37050 ft 472 kts 173°
2026-04-14 14:32 49.55075 -3.17132 37061 ft 474 kts 173°
2026-04-14 14:33 49.48646 -3.14738 37062 ft 475 kts 173°
2026-04-14 14:33 49.42210 -3.12341 37059 ft 476 kts 173°
2026-04-14 14:34 49.32545 -3.08758 37063 ft 478 kts 173°
2026-04-14 14:35 49.26047 -3.06358 37047 ft 480 kts 172°
2026-04-14 14:35 49.19581 -3.03978 37055 ft 481 kts 172°
2026-04-14 14:36 49.13060 -3.01583 37063 ft 482 kts 172°
2026-04-14 14:36 49.06526 -2.99190 37060 ft 483 kts 172°
2026-04-14 14:37 48.99990 -2.96803 37046 ft 483 kts 172°
2026-04-14 14:37 48.93483 -2.94432 37057 ft 483 kts 172°
2026-04-14 14:38 48.86939 -2.92055 37062 ft 483 kts 172°
2026-04-14 14:38 48.80385 -2.89680 37064 ft 483 kts 172°
2026-04-14 14:39 48.73880 -2.87330 37071 ft 482 kts 172°
2026-04-14 14:39 48.67331 -2.84971 37075 ft 484 kts 172°
2026-04-14 14:40 48.60766 -2.82612 37059 ft 484 kts 172°
2026-04-14 14:40 48.54263 -2.80279 37059 ft 482 kts 172°
2026-04-14 14:41 48.47731 -2.77943 37058 ft 481 kts 172°
2026-04-14 14:41 48.41216 -2.75621 37079 ft 480 kts 172°
2026-04-14 14:42 48.34718 -2.73310 37079 ft 479 kts 172°
2026-04-14 14:42 48.28259 -2.71020 37089 ft 479 kts 172°
2026-04-14 14:43 48.21752 -2.68719 37085 ft 480 kts 172°
2026-04-14 14:43 48.15239 -2.66421 37086 ft 480 kts 172°
2026-04-14 14:44 48.08752 -2.64138 37112 ft 481 kts 172°
2026-04-14 14:44 48.02199 -2.61838 37113 ft 482 kts 172°
2026-04-14 14:45 47.95684 -2.59557 37097 ft 483 kts 172°
2026-04-14 14:45 47.89120 -2.57264 37122 ft 484 kts 172°
2026-04-14 14:46 47.82535 -2.54970 37114 ft 485 kts 172°
2026-04-14 14:46 47.75999 -2.52699 37121 ft 485 kts 171°
2026-04-14 14:47 47.69550 -2.49518 37143 ft 492 kts 152°
2026-04-14 14:47 47.66685 -2.46701 37127 ft 495 kts 141°
2026-04-14 14:47 47.64239 -2.43192 37141 ft 494 kts 130°
2026-04-14 14:48 47.59783 -2.35379 37138 ft 496 kts 129°
2026-04-14 14:48 47.55345 -2.27600 37139 ft 497 kts 129°
2026-04-14 14:49 47.50812 -2.19830 37152 ft 498 kts 130°
2026-04-14 14:49 47.46284 -2.12149 37153 ft 498 kts 130°
2026-04-14 14:50 47.41720 -2.04423 37167 ft 498 kts 129°
2026-04-14 14:50 47.37162 -1.96716 37156 ft 498 kts 129°
2026-04-14 14:51 47.32632 -1.89079 37159 ft 496 kts 129°
2026-04-14 14:51 47.28077 -1.81402 37149 ft 496 kts 129°
2026-04-14 14:52 47.23532 -1.73757 37160 ft 495 kts 129°
2026-04-14 14:52 47.19022 -1.66189 37142 ft 494 kts 129°
2026-04-14 14:53 47.14359 -1.58749 37156 ft 496 kts 135°
2026-04-14 14:53 47.09184 -1.52024 37146 ft 496 kts 137°
2026-04-14 14:54 47.04007 -1.45410 37164 ft 495 kts 136°
2026-04-14 14:54 46.98857 -1.38676 37164 ft 495 kts 136°
2026-04-14 14:55 46.93745 -1.31990 37166 ft 495 kts 136°
2026-04-14 14:55 46.88613 -1.25297 37186 ft 495 kts 136°
2026-04-14 14:56 46.80903 -1.15272 37184 ft 496 kts 136°
2026-04-14 14:56 46.75745 -1.08586 37180 ft 496 kts 136°
2026-04-14 14:57 46.70571 -1.01897 37179 ft 496 kts 136°
2026-04-14 14:57 46.65430 -0.95269 37185 ft 496 kts 136°
2026-04-14 14:58 46.60252 -0.88607 37185 ft 496 kts 136°
2026-04-14 14:58 46.55069 -0.81947 37176 ft 496 kts 135°
2026-04-14 14:59 46.49927 -0.75321 37197 ft 497 kts 135°
2026-04-14 14:59 46.44685 -0.68767 37176 ft 498 kts 142°
2026-04-14 15:00 46.38557 -0.64068 37188 ft 499 kts 162°
2026-04-14 15:00 46.31925 -0.61081 37199 ft 498 kts 163°
2026-04-14 15:01 46.25321 -0.58166 37193 ft 498 kts 163°
2026-04-14 15:01 46.18697 -0.55165 37199 ft 498 kts 163°
2026-04-14 15:02 46.12116 -0.52145 37199 ft 498 kts 162°
2026-04-14 15:02 46.05505 -0.49114 37198 ft 497 kts 162°
2026-04-14 15:03 45.98938 -0.46116 37198 ft 498 kts 162°
2026-04-14 15:03 45.92331 -0.43110 37193 ft 498 kts 162°
2026-04-14 15:04 45.85712 -0.40106 37202 ft 498 kts 162°
2026-04-14 15:04 45.79127 -0.37124 37201 ft 499 kts 162°
2026-04-14 15:05 45.72506 -0.34133 37207 ft 499 kts 162°
2026-04-14 15:05 45.65874 -0.31106 37212 ft 499 kts 159°
2026-04-14 15:06 45.59566 -0.27020 37214 ft 498 kts 152°
2026-04-14 15:06 45.53405 -0.22610 37203 ft 497 kts 152°
2026-04-14 15:07 45.47193 -0.18221 37199 ft 498 kts 152°
2026-04-14 15:07 45.40952 -0.13905 37194 ft 498 kts 152°
2026-04-14 15:08 45.34738 -0.09648 37197 ft 498 kts 152°
2026-04-14 15:08 45.28481 -0.05373 37203 ft 498 kts 152°
2026-04-14 15:09 45.22216 -0.01099 37207 ft 498 kts 152°
2026-04-14 15:09 45.15997 0.03137 37204 ft 499 kts 152°
2026-04-14 15:10 45.09722 0.07400 37198 ft 499 kts 152°
2026-04-14 15:10 45.03452 0.11648 37198 ft 499 kts 152°
2026-04-14 15:11 44.97219 0.15862 37198 ft 498 kts 152°
2026-04-14 15:11 44.90950 0.20089 37191 ft 498 kts 152°
2026-04-14 15:12 44.84690 0.24301 37186 ft 498 kts 152°
2026-04-14 15:12 44.78463 0.28480 37193 ft 498 kts 152°
2026-04-14 15:13 44.72185 0.32683 37192 ft 498 kts 152°
2026-04-14 15:13 44.65948 0.36849 37188 ft 498 kts 152°
2026-04-14 15:14 44.59664 0.41036 37196 ft 499 kts 152°
2026-04-14 15:14 44.54437 0.44512 37204 ft 499 kts 152°
2026-04-14 15:15 44.47118 0.49368 37201 ft 500 kts 152°
2026-04-14 15:15 44.41884 0.52828 37198 ft 500 kts 152°
2026-04-14 15:16 44.35562 0.56968 37206 ft 500 kts 152°
2026-04-14 15:16 44.29227 0.61101 37187 ft 501 kts 152°
2026-04-14 15:17 44.22949 0.65193 37184 ft 501 kts 152°
2026-04-14 15:17 44.16616 0.69314 37185 ft 501 kts 152°
2026-04-14 15:18 44.10288 0.73421 37192 ft 501 kts 152°
2026-04-14 15:18 44.03998 0.77495 37227 ft 502 kts 152°
2026-04-14 15:19 43.97645 0.81601 37198 ft 502 kts 152°
2026-04-14 15:19 43.91426 0.85976 37185 ft 496 kts 140°
2026-04-14 15:20 43.86440 0.92260 37199 ft 481 kts 121°
2026-04-14 15:20 43.82761 0.99850 37205 ft 473 kts 114°
2026-04-14 15:21 43.79213 1.07565 37188 ft 474 kts 115°
2026-04-14 15:21 43.75610 1.15222 37226 ft 475 kts 115°
2026-04-14 15:22 43.71987 1.22840 37188 ft 476 kts 115°
2026-04-14 15:22 43.68337 1.30495 37182 ft 477 kts 116°
2026-04-14 15:23 43.64290 1.37854 37191 ft 482 kts 122°
2026-04-14 15:23 43.60034 1.44931 37185 ft 481 kts 122°
2026-04-14 15:24 43.55781 1.52062 37180 ft 480 kts 121°
2026-04-14 15:24 43.51575 1.59209 37181 ft 478 kts 122°
2026-04-14 15:25 43.47426 1.66268 37176 ft 475 kts 122°
2026-04-14 15:25 43.43262 1.73331 37170 ft 472 kts 122°
2026-04-14 15:26 43.39159 1.80270 37165 ft 468 kts 122°
2026-04-14 15:26 43.34528 1.86642 37162 ft 482 kts 145°
2026-04-14 15:27 43.31465 1.88498 37168 ft 490 kts 162°
2026-04-14 15:27 43.28081 1.89190 37185 ft 493 kts 175°
2026-04-14 15:27 43.21252 1.89677 37165 ft 493 kts 176°
2026-04-14 15:28 43.14377 1.90223 37167 ft 494 kts 175°
2026-04-14 15:28 43.07526 1.90859 37161 ft 495 kts 174°
2026-04-14 15:29 43.00611 1.91530 37161 ft 498 kts 174°
2026-04-14 15:29 42.93742 1.92191 37163 ft 498 kts 174°
2026-04-14 15:30 42.86796 1.92852 37163 ft 499 kts 175°
2026-04-14 15:30 42.79862 1.93511 37148 ft 499 kts 174°
2026-04-14 15:31 42.72977 1.94167 37150 ft 498 kts 173°
2026-04-14 15:31 42.69575 1.94966 37142 ft 493 kts 160°
2026-04-14 15:31 42.66374 1.96594 37137 ft 488 kts 149°
2026-04-14 15:32 42.63444 1.98862 37128 ft 480 kts 138°
2026-04-14 15:32 42.60888 2.01654 37139 ft 475 kts 133°
2026-04-14 15:32 42.55852 2.07493 37105 ft 476 kts 134°
2026-04-14 15:33 42.50789 2.13239 37082 ft 477 kts 134°
2026-04-14 15:33 42.45642 2.18987 37081 ft 478 kts 134°
2026-04-14 15:34 42.40533 2.24683 37056 ft 478 kts 134°
2026-04-14 15:34 42.35394 2.30421 37102 ft 477 kts 135°
2026-04-14 15:35 42.30254 2.36150 37077 ft 477 kts 135°
2026-04-14 15:35 42.25144 2.41833 37047 ft 477 kts 135°
2026-04-14 15:36 42.20005 2.47536 37044 ft 477 kts 135°
2026-04-14 15:36 42.15007 2.53058 37010 ft 454 kts 135°
2026-04-14 15:37 42.12594 2.55718 37026 ft 441 kts 135°
2026-04-14 15:37 42.10251 2.58302 36979 ft 427 kts 134°
2026-04-14 15:37 42.05730 2.63297 37060 ft 421 kts 134°
2026-04-14 15:38 42.01152 2.68361 37123 ft 434 kts 135°
2026-04-14 15:38 41.96391 2.73594 37062 ft 445 kts 135°
2026-04-14 15:39 41.91571 2.78775 37042 ft 445 kts 138°
2026-04-14 15:39 41.86573 2.83571 37039 ft 438 kts 140°
2026-04-14 15:40 41.81573 2.88265 37065 ft 439 kts 140°
2026-04-14 15:40 41.76568 2.93009 37070 ft 441 kts 139°
2026-04-14 15:41 41.71557 2.97781 37082 ft 441 kts 139°
2026-04-14 15:41 41.66572 3.02525 37067 ft 443 kts 139°
2026-04-14 15:42 41.61538 3.07305 37098 ft 444 kts 140°
2026-04-14 15:42 41.56487 3.12092 37076 ft 444 kts 140°
2026-04-14 15:43 41.51459 3.16847 37077 ft 443 kts 140°
2026-04-14 15:43 41.46327 3.21442 37071 ft 444 kts 144°
2026-04-14 15:44 41.41047 3.25702 37069 ft 442 kts 144°
2026-04-14 15:44 41.35820 3.29908 37073 ft 441 kts 144°
2026-04-14 15:45 41.30591 3.34165 37070 ft 439 kts 144°
2026-04-14 15:45 41.25381 3.38417 37076 ft 438 kts 144°
2026-04-14 15:46 41.20199 3.42636 37077 ft 438 kts 144°
2026-04-14 15:46 41.15023 3.46852 36711 ft 432 kts 143°
2026-04-14 15:47 41.12459 3.48955 36082 ft 437 kts 143°
2026-04-14 15:47 41.09821 3.51125 34954 ft 456 kts 143°
2026-04-14 15:47 41.07082 3.53370 34189 ft 466 kts 143°
2026-04-14 15:47 41.04321 3.55614 33793 ft 463 kts 143°
2026-04-14 15:48 41.01628 3.57786 33565 ft 455 kts 143°
2026-04-14 15:48 40.98936 3.59955 33258 ft 450 kts 143°
2026-04-14 15:48 40.96265 3.62108 32859 ft 447 kts 143°
2026-04-14 15:48 40.93617 3.64244 32471 ft 444 kts 143°
2026-04-14 15:49 40.90991 3.66363 32114 ft 441 kts 143°
2026-04-14 15:49 40.88385 3.68464 31772 ft 437 kts 143°
2026-04-14 15:49 40.85791 3.70554 31438 ft 433 kts 143°
2026-04-14 15:49 40.83225 3.72619 31115 ft 430 kts 144°
2026-04-14 15:50 40.80711 3.74640 30796 ft 426 kts 144°
2026-04-14 15:50 40.78193 3.76664 30470 ft 423 kts 144°
2026-04-14 15:50 40.75686 3.78677 30139 ft 420 kts 144°
2026-04-14 15:50 40.73189 3.80679 29779 ft 417 kts 144°
2026-04-14 15:51 40.70726 3.82653 29477 ft 411 kts 145°
2026-04-14 15:51 40.68319 3.84579 29137 ft 407 kts 145°
2026-04-14 15:51 40.66614 3.85943 28847 ft 405 kts 145°
2026-04-14 15:51 40.64233 3.87847 28439 ft 402 kts 145°
2026-04-14 15:52 40.61841 3.89759 28036 ft 400 kts 145°
2026-04-14 15:52 40.59473 3.91650 27674 ft 397 kts 145°
2026-04-14 15:52 40.57112 3.93534 27302 ft 394 kts 146°
2026-04-14 15:52 40.54777 3.95395 26931 ft 391 kts 146°
2026-04-14 15:53 40.52453 3.97245 26582 ft 389 kts 146°
2026-04-14 15:53 40.50155 3.99036 26223 ft 387 kts 150°
2026-04-14 15:53 40.47628 4.00276 25853 ft 387 kts 162°
2026-04-14 15:53 40.45035 4.01180 25543 ft 384 kts 164°
2026-04-14 15:54 40.39897 4.02866 24808 ft 381 kts 164°
2026-04-14 15:54 40.37324 4.03733 24194 ft 383 kts 164°
2026-04-14 15:54 40.34729 4.04628 23526 ft 385 kts 164°
2026-04-14 15:55 40.32139 4.05533 22758 ft 386 kts 163°
2026-04-14 15:55 40.29533 4.06452 22028 ft 386 kts 163°
2026-04-14 15:55 40.26938 4.07368 21295 ft 384 kts 163°
2026-04-14 15:55 40.24361 4.08279 20570 ft 382 kts 163°
2026-04-14 15:56 40.21832 4.09172 19903 ft 379 kts 163°
2026-04-14 15:56 40.19289 4.10070 19224 ft 377 kts 163°
2026-04-14 15:56 40.16760 4.10962 18566 ft 375 kts 163°
2026-04-14 15:56 40.14248 4.11847 17845 ft 372 kts 163°
2026-04-14 15:57 40.11749 4.12726 17107 ft 370 kts 163°
2026-04-14 15:57 40.09322 4.13498 16391 ft 368 kts 172°
2026-04-14 15:57 40.06801 4.13176 15674 ft 366 kts 201°
2026-04-14 15:57 40.04718 4.11432 15053 ft 358 kts 229°
2026-04-14 15:58 40.03514 4.08795 14450 ft 349 kts 256°
2026-04-14 15:58 40.03306 4.05714 13868 ft 339 kts 273°
2026-04-14 15:58 40.02965 4.02721 13147 ft 342 kts 248°
2026-04-14 15:58 40.01538 4.00288 12578 ft 338 kts 219°
2026-04-14 15:59 39.99558 3.98700 12070 ft 332 kts 207°
2026-04-14 15:59 39.97497 3.97391 11534 ft 326 kts 207°
2026-04-14 15:59 39.95471 3.96090 11069 ft 320 kts 204°
2026-04-14 15:59 39.93469 3.95023 10962 ft 302 kts 199°
2026-04-14 16:00 39.91502 3.94243 10703 ft 291 kts 193°
2026-04-14 16:00 39.89540 3.93725 10257 ft 290 kts 189°
2026-04-14 16:00 39.87543 3.93386 9765 ft 289 kts 184°
2026-04-14 16:00 39.85537 3.93303 9259 ft 287 kts 178°
2026-04-14 16:01 39.83551 3.93509 8792 ft 285 kts 171°
2026-04-14 16:01 39.82258 3.93791 8487 ft 283 kts 167°
2026-04-14 16:01 39.80350 3.94409 8013 ft 281 kts 162°
2026-04-14 16:01 39.77900 3.95561 7456 ft 281 kts 155°
2026-04-14 16:02 39.76710 3.96274 7211 ft 277 kts 152°
2026-04-14 16:02 39.75028 3.97483 6756 ft 275 kts 146°
2026-04-14 16:02 39.73442 3.98877 6275 ft 274 kts 142°
2026-04-14 16:02 39.71984 4.00418 5816 ft 272 kts 136°
2026-04-14 16:03 39.70635 4.02115 5474 ft 267 kts 130°
2026-04-14 16:03 39.69420 4.03929 5170 ft 265 kts 125°
2026-04-14 16:03 39.68331 4.05864 4865 ft 264 kts 120°
2026-04-14 16:03 39.67378 4.07894 4569 ft 261 kts 115°
2026-04-14 16:04 39.66570 4.09992 4292 ft 258 kts 110°
2026-04-14 16:04 39.65913 4.12122 4031 ft 254 kts 105°
2026-04-14 16:04 39.65450 4.14285 3751 ft 242 kts 90°
2026-04-14 16:04 39.65810 4.16268 3537 ft 219 kts 51°
2026-04-14 16:05 39.66969 4.17383 3331 ft 203 kts 19°
2026-04-14 16:05 39.68277 4.17929 3121 ft 197 kts 17°
2026-04-14 16:05 39.69609 4.18412 2925 ft 198 kts 12°
2026-04-14 16:05 39.70969 4.18732 2715 ft 196 kts
2026-04-14 16:06 39.72298 4.18998 2542 ft 190 kts
2026-04-14 16:06 39.73565 4.19256 2354 ft 183 kts
2026-04-14 16:06 39.74815 4.19515 2149 ft 175 kts
2026-04-14 16:06 39.75962 4.19750 2014 ft 158 kts
2026-04-14 16:07 39.77016 4.19966 1917 ft 153 kts
2026-04-14 16:07 39.78042 4.20177 1733 ft 149 kts
2026-04-14 16:07 39.79034 4.20381 1517 ft 138 kts
2026-04-14 16:07 39.79933 4.20566 1346 ft 124 kts
2026-04-14 16:08 39.80792 4.20743 1202 ft 127 kts
2026-04-14 16:08 39.81671 4.20918 1007 ft 130 kts
2026-04-14 16:08 39.82564 4.21078 775 ft 128 kts
2026-04-14 16:08 39.83449 4.21267 639 ft 131 kts
2026-04-14 16:09 39.84371 4.21471 482 ft 133 kts
2026-04-14 16:09 39.85288 4.21663 304 ft 134 kts
2026-04-14 16:09 39.86067 4.21821 303 ft 66 kts 10°
2026-04-14 16:09 39.86231 4.21894 301 ft 2 kts 76°
2026-04-14 16:10 39.86224 4.21924 301 ft 5 kts 105°
2026-04-14 16:10 39.86212 4.21983 299 ft 8 kts 104°
2026-04-14 16:10 39.86200 4.22069 295 ft 11 kts 99°
2026-04-14 16:10 39.86187 4.22180 289 ft 15 kts 98°
2026-04-14 16:11 39.86244 4.22271 287 ft 15 kts
2026-04-14 16:11 39.86344 4.22292 287 ft 14 kts
2026-04-14 16:11 39.86429 4.22309 287 ft 3 kts
2026-04-14 16:11 39.86452 4.22314 287 ft 3 kts
2026-04-14 16:12 39.86474 4.22318 287 ft 3 kts
2026-04-14 16:12 39.86504 4.22324 287 ft 6 kts
2026-04-14 16:12 39.86535 4.22357 287 ft 8 kts 84°
2026-04-14 16:12 39.86532 4.22403 285 ft 2 kts 98°
2026-04-14 16:13 39.86530 4.22419 285 ft 0 kts 98°
2026-04-14 16:13 39.86529 4.22423 285 ft 0 kts 98°